Flag for Canada Weather past 2 weeks in Moncton, New Brunswick, Canada

Now
19 °F

Broken clouds.


Feels Like: 11 °F
Forecast: 3 / 26 °F
Wind: 6 mph from East

Location: Moncton

Current Time: Jan 30, 2015 at 2:47:05 PM

Latest Report: Jan 30, 2015 at 2:00 PM


Visibility: 15 mi

Pressure: 29.89 "Hg

Humidity: 86%

Dew point: 16 °F

Location of MonctonLocation

Historic Weather in Moncton — Graph

°F

Moncton temperature yesterday

Maximum temperature yesterday: 21 °F (at 3:00 PM)
Minimum temperature yesterday: 5 °F (at 6:00 AM)
Average temperature yesterday: 11 °F

Past Weeks' High & Low Weather Summary

 TemperatureHumidityPressure
High46 °F (Jan 19, 11:00 AM)100% (Jan 19, 4:00 PM)30.37 "Hg (Jan 19, 4:00 PM)
Low-6 °F (Jan 17, 6:00 AM)46% (Jan 17, 5:00 PM)28.64 "Hg (Jan 25, 2:00 AM)
Average19 °F75%29.83 "Hg
* Reported Jan 15 1:00 PM — Jan 30 1:00 PM, Moncton, Weather by CustomWeather, © 2014

Note: Actual official high and low records may vary slightly from our data, if they occured in-between our weather recording intervals... More about our weather records

Advertising

Moncton weather history for previous 24 hours

 ConditionsComfort  
Time TempWeatherWind HumidityBarometerVisibility
1:00 PM
Jan 30
18 °FLow clouds.6 mph93%29.91 "Hg10 mi
12:00 PM16 °FIce fog.6 mph86%29.95 "Hg5 mi
11:00 AM16 °FIce fog.7 mph86%29.98 "Hg1 mi
10:00 AM12 °FIce fog.No wind85%29.99 "Hg2 mi
9:00 AM10 °FIce fog.5 mph85%30.01 "Hg1 mi
8:00 AM3 °FFrigid.6 mph85%30.03 "Hg1 mi
7:00 AM1 °FFog.3 mph78%30.04 "Hg12 mi
6:00 AM0 °FIce fog.2 mph84%30.05 "Hg1 mi
5:56 AM0 °FIce fog.2 mph78%30.05 "Hg1 mi
5:00 AM5 °FIce fog.6 mph85%30.06 "Hg3 mi
4:00 AM5 °FIce fog.3 mph85%30.08 "Hg3 mi
3:00 AM5 °FPassing clouds.5 mph85%30.10 "Hg15 mi
2:00 AM5 °FPassing clouds.No wind85%30.11 "Hg15 mi
1:00 AM10 °FFog.6 mph85%30.13 "Hg12 mi
12:00 AM9 °FPassing clouds.3 mph85%30.15 "Hg15 mi
11:00 PM
Jan 29
9 °FPassing clouds.6 mph85%30.16 "Hg15 mi
10:00 PM9 °FPassing clouds.5 mph78%30.17 "Hg15 mi
9:00 PM7 °FPassing clouds.6 mph85%30.20 "Hg15 mi
8:00 PM9 °FPassing clouds.5 mph78%30.21 "Hg15 mi
7:00 PM7 °FPassing clouds.5 mph78%30.22 "Hg15 mi
6:00 PM12 °FPassing clouds.6 mph73%30.22 "Hg15 mi
5:00 PM16 °FPassing clouds.6 mph79%30.21 "Hg15 mi
4:00 PM21 °FPassing clouds.2 mph68%30.22 "Hg15 mi
3:00 PM21 °FPassing clouds.No wind63%30.21 "Hg15 mi
2:00 PM19 °FPassing clouds.No wind63%30.22 "Hg15 mi
Weather by CustomWeather, © 2014

See weather overviewHow to use our weather pages